| time (UTC) | temp C | wind direction | speed KPH | gust KPH | rain 1hr cm | rain 24hr cm | rain mn cm | humidity % | barometer mb |
| 20260507060424 | 13 | 280 | 12.9 | 17.7 | 0.00 | 0.08 | 0.00 | 68 | 1014.5 |
| 20260507055421 | 12 | 278 | 4.8 | 9.7 | 0.00 | 0.08 | 0.00 | 69 | 1014.5 |
| 20260507054420 | 12 | 256 | 6.4 | 11.3 | 0.00 | 0.08 | 0.00 | 68 | 1014.2 |
| 20260507053417 | 12 | 270 | 6.4 | 11.3 | 0.00 | 0.08 | 0.00 | 68 | 1014.2 |
| 20260507052443 | 12 | 291 | 4.8 | 4.8 | 0.00 | 0.08 | 0.00 | 69 | 1014.2 |
| 20260507051502 | 12 | 246 | 3.2 | 4.8 | 0.00 | 0.08 | 0.00 | 67 | 1013.9 |
| 20260507050558 | 12 | 229 | 1.6 | 3.2 | 0.00 | 0.08 | 0.00 | 70 | 1013.9 |
| 20260507045434 | 11 | 194 | 6.4 | 11.3 | 0.00 | 0.08 | 0.00 | 72 | 1013.7 |
| 20260507044431 | 11 | 215 | 3.2 | 4.8 | 0.00 | 0.08 | 0.00 | 73 | 1013.7 |
| 20260507043429 | 11 | 265 | 3.2 | 4.8 | 0.00 | 0.08 | 0.00 | 73 | 1013.6 |
| 20260507042426 | 10 | 240 | 3.2 | 3.2 | 0.00 | 0.08 | 0.00 | 75 | 1013.6 |
| 20260507041424 | 10 | 220 | 3.2 | 6.4 | 0.00 | 0.08 | 0.00 | 76 | 1013.5 |
| 20260507040420 | 10 | 192 | 3.2 | 3.2 | 0.00 | 0.08 | 0.00 | 76 | 1013.4 |
| 20260507035430 | 10 | 267 | 4.8 | 6.4 | 0.00 | 0.08 | 0.00 | 76 | 1013.1 |
| 20260507034446 | 10 | 201 | 3.2 | 3.2 | 0.00 | 0.08 | 0.00 | 77 | 1013.1 |
| 20260507033442 | 10 | 229 | 1.6 | 3.2 | 0.00 | 0.08 | 0.00 | 77 | 1012.9 |
| 20260507032439 | 10 | 283 | 3.2 | 4.8 | 0.00 | 0.08 | 0.00 | 76 | 1012.8 |
| 20260507031458 | 11 | 269 | 1.6 | 4.8 | 0.00 | 0.08 | 0.00 | 76 | 1013.0 |
| 20260507030435 | 11 | 269 | 8.0 | 14.5 | 0.00 | 0.08 | 0.00 | 75 | 1013.0 |
| 20260507025431 | 11 | 293 | 3.2 | 6.4 | 0.00 | 0.08 | 0.00 | 76 | 1012.8 |
| 20260507024433 | 11 | 256 | 8.0 | 11.3 | 0.00 | 0.08 | 0.00 | 77 | 1012.8 |
| 20260507023429 | 11 | 170 | 1.6 | 3.2 | 0.00 | 0.08 | 0.00 | 77 | 1012.6 |
| 20260507022430 | 11 | 226 | 3.2 | 3.2 | 0.00 | 0.08 | 0.00 | 77 | 1012.8 |
| 20260507021429 | 11 | 255 | 3.2 | 3.2 | 0.00 | 0.08 | 0.00 | 77 | 1012.4 |
| 20260507020428 | 11 | 270 | 3.2 | 6.4 | 0.00 | 0.08 | 0.00 | 77 | 1012.6 |
| 20260507015505 | 11 | 285 | 6.4 | 14.5 | 0.00 | 0.08 | 0.00 | 78 | 1012.6 |
| 20260507014442 | 10 | 265 | 3.2 | 4.8 | 0.00 | 0.08 | 0.00 | 78 | 1012.6 |
| 20260507013439 | 11 | 259 | 3.2 | 6.4 | 0.00 | 0.08 | 0.00 | 78 | 1012.7 |
| 20260507012436 | 11 | 265 | 1.6 | 1.6 | 0.00 | 0.08 | 0.00 | 76 | 1012.1 |
| 20260507011435 | 11 | 254 | 6.4 | 11.3 | 0.00 | 0.08 | 0.00 | 75 | 1012.2 |
| 20260507010430 | 11 | 287 | 12.9 | 22.5 | 0.00 | 0.08 | 0.00 | 73 | 1012.1 |
| 20260507005428 | 11 | 299 | 4.8 | 9.7 | 0.00 | 0.08 | 0.00 | 74 | 1012.2 |
| 20260507004426 | 11 | 267 | 8.0 | 14.5 | 0.00 | 0.08 | 0.00 | 74 | 1012.2 |
| 20260507003429 | 11 | 267 | 1.6 | 3.2 | 0.00 | 0.08 | 0.00 | 76 | 1012.1 |
| 20260507002428 | 11 | 219 | 8.0 | 12.9 | 0.00 | 0.08 | 0.00 | 77 | 1012.1 |
| 20260507001429 | 11 | 235 | 1.6 | 4.8 | 0.00 | 0.08 | 0.00 | 78 | 1012.3 |
| 20260507000445 | 11 | 263 | 3.2 | 9.7 | 0.00 | 0.08 | 0.00 | 79 | 1012.1 |
| 20260506235502 | 11 | 279 | 4.8 | 9.7 | 0.00 | 0.08 | 0.00 | 80 | 1012.2 |
| 20260506234438 | 11 | 263 | 9.7 | 16.1 | 0.00 | 0.08 | 0.00 | 80 | 1012.5 |
| 20260506233457 | 11 | 267 | 6.4 | 9.7 | 0.00 | 0.08 | 0.00 | 80 | 1012.1 |
| 20260506232433 | 11 | 209 | 8.0 | 12.9 | 0.00 | 0.08 | 0.00 | 81 | 1012.1 |
| 20260506231430 | 11 | 271 | 8.0 | 12.9 | 0.00 | 0.08 | 0.00 | 82 | 1012.0 |
| 20260506230429 | 11 | 261 | 6.4 | 9.7 | 0.00 | 0.08 | 0.00 | 83 | 1012.0 |
| 20260506225429 | 11 | 252 | 3.2 | 4.8 | 0.00 | 0.08 | 0.00 | 84 | 1012.0 |
| 20260506224431 | 11 | 271 | 3.2 | 6.4 | 0.00 | 0.08 | 0.00 | 85 | 1011.8 |
| 20260506223507 | 11 | 271 | 3.2 | 6.4 | 0.00 | 0.08 | 0.00 | 86 | 1011.7 |
| 20260506222434 | 11 | 285 | 6.4 | 11.3 | 0.00 | 0.08 | 0.00 | 86 | 1011.8 |
| 20260506221443 | 10 | 274 | 6.4 | 11.3 | 0.00 | 0.08 | 0.00 | 88 | 1011.6 |
| 20260506220441 | 10 | 225 | 4.8 | 11.3 | 0.00 | 0.08 | 0.00 | 90 | 1011.7 |
| 20260506215458 | 10 | 269 | 8.0 | 11.3 | 0.03 | 0.08 | 0.08 | 91 | 1011.7 |
| 20260506214435 | 11 | 293 | 9.7 | 12.9 | 0.03 | 0.08 | 0.08 | 91 | 1011.4 |
| 20260506213433 | 11 | 251 | 4.8 | 6.4 | 0.05 | 0.08 | 0.08 | 94 | 1011.4 |
| 20260506212452 | 11 | 285 | 4.8 | 9.7 | 0.08 | 0.08 | 0.08 | 94 | 1011.2 |
| 20260506211429 | 11 | 272 | 8.0 | 11.3 | 0.08 | 0.08 | 0.08 | 94 | 1011.2 |
| 20260506210429 | 11 | 290 | 11.3 | 20.9 | 0.08 | 0.08 | 0.08 | 93 | 1010.9 |
| 20260506205430 | 11 | 282 | 12.9 | 16.1 | 0.05 | 0.05 | 0.05 | 93 | 1010.6 |
| 20260506204431 | 11 | 287 | 19.3 | 27.4 | 0.05 | 0.05 | 0.05 | 92 | 1010.7 |
| 20260506203429 | 12 | 302 | 19.3 | 30.6 | 0.03 | 0.03 | 0.03 | 90 | 1010.5 |
| 20260506202444 | 12 | 282 | 24.1 | 56.3 | 0.00 | 0.00 | 0.00 | 86 | 1010.1 |
| 20260506201441 | 13 | 283 | 19.3 | 25.7 | 0.00 | 0.00 | 0.00 | 84 | 1009.7 |
| 20260506200439 | 13 | 291 | 17.7 | 24.1 | 0.00 | 0.00 | 0.00 | 82 | 1009.6 |
| 20260506195435 | 13 | 282 | 24.1 | 40.2 | 0.00 | 0.00 | 0.00 | 80 | 1009.4 |
| 20260506194433 | 14 | 301 | 19.3 | 33.8 | 0.00 | 0.00 | 0.00 | 76 | 1008.8 |
| 20260506193430 | 14 | 290 | 9.7 | 17.7 | 0.00 | 0.00 | 0.00 | 74 | 1009.0 |
| 20260506192429 | 14 | 283 | 16.1 | 27.4 | 0.00 | 0.00 | 0.00 | 72 | 1008.6 |
| 20260506191429 | 15 | 283 | 8.0 | 14.5 | 0.00 | 0.00 | 0.00 | 69 | 1008.2 |
| 20260506190429 | 15 | 294 | 9.7 | 16.1 | 0.00 | 0.00 | 0.00 | 68 | 1008.3 |
| 20260506185427 | 15 | 288 | 19.3 | 24.1 | 0.00 | 0.00 | 0.00 | 68 | 1008.2 |
| 20260506184444 | 15 | 294 | 16.1 | 22.5 | 0.00 | 0.00 | 0.00 | 68 | 1007.8 |
| 20260506183444 | 15 | 291 | 16.1 | 20.9 | 0.00 | 0.00 | 0.00 | 67 | 1007.4 |
| 20260506182442 | 15 | 293 | 16.1 | 20.9 | 0.00 | 0.00 | 0.00 | 65 | 1007.2 |
| 20260506181438 | 17 | 280 | 20.9 | 25.7 | 0.00 | 0.00 | 0.00 | 58 | 1006.3 |
| 20260506180435 | 19 | 212 | 8.0 | 16.1 | 0.00 | 0.00 | 0.00 | 47 | 1005.4 |
| 20260506175432 | 19 | 171 | 9.7 | 22.5 | 0.00 | 0.00 | 0.00 | 47 | 1004.7 |
| 20260506174430 | 20 | 158 | 16.1 | 29.0 | 0.00 | 0.00 | 0.00 | 46 | 1004.3 |
| 20260506173429 | 20 | 190 | 17.7 | 30.6 | 0.00 | 0.00 | 0.00 | 46 | 1003.9 |
| 20260506172429 | 20 | 213 | 22.5 | 38.6 | 0.00 | 0.00 | 0.00 | 45 | 1003.6 |
| 20260506171427 | 20 | 225 | 14.5 | 27.4 | 0.00 | 0.00 | 0.00 | 44 | 1003.4 |
| 20260506170427 | 21 | 160 | 16.1 | 25.7 | 0.00 | 0.00 | 0.00 | 45 | 1003.2 |
| 20260506165443 | 21 | 182 | 17.7 | 33.8 | 0.00 | 0.00 | 0.00 | 44 | 1003.4 |
| 20260506164443 | 21 | 146 | 16.1 | 22.5 | 0.00 | 0.00 | 0.00 | 45 | 1003.6 |
| 20260506163502 | 20 | 170 | 12.9 | 25.7 | 0.00 | 0.00 | 0.00 | 46 | 1003.8 |
| 20260506162459 | 20 | 250 | 11.3 | 16.1 | 0.00 | 0.00 | 0.00 | 45 | 1003.7 |
| 20260506161434 | 20 | 192 | 17.7 | 37.0 | 0.00 | 0.00 | 0.00 | 46 | 1003.7 |
| 20260506160433 | 20 | 189 | 14.5 | 24.1 | 0.00 | 0.00 | 0.00 | 47 | 1004.0 |
| 20260506155449 | 20 | 226 | 9.7 | 12.9 | 0.00 | 0.00 | 0.00 | 46 | 1004.1 |
| 20260506154427 | 21 | 188 | 16.1 | 25.7 | 0.00 | 0.00 | 0.00 | 44 | 1004.1 |
| 20260506153427 | 21 | 215 | 17.7 | 30.6 | 0.00 | 0.00 | 0.00 | 45 | 1004.0 |
| 20260506152427 | 21 | 181 | 17.7 | 30.6 | 0.00 | 0.00 | 0.00 | 44 | 1004.4 |
| 20260506151428 | 21 | 212 | 14.5 | 24.1 | 0.00 | 0.00 | 0.00 | 45 | 1004.6 |
| 20260506150504 | 21 | 192 | 12.9 | 24.1 | 0.00 | 0.00 | 0.00 | 45 | 1004.6 |
| 20260506145441 | 21 | 125 | 8.0 | 22.5 | 0.00 | 0.00 | 0.00 | 45 | 1004.8 |
| 20260506144439 | 21 | 202 | 6.4 | 11.3 | 0.00 | 0.00 | 0.00 | 45 | 1005.0 |
| 20260506143436 | 21 | 187 | 12.9 | 22.5 | 0.00 | 0.00 | 0.00 | 47 | 1005.0 |
| 20260506142433 | 21 | 258 | 3.2 | 9.7 | 0.00 | 0.00 | 0.00 | 47 | 1005.2 |
| 20260506141430 | 21 | 185 | 6.4 | 9.7 | 0.00 | 0.00 | 0.00 | 46 | 1005.1 |
| 20260506140427 | 21 | 121 | 6.4 | 12.9 | 0.00 | 0.00 | 0.00 | 50 | 1005.2 |
| 20260506135525 | 21 | 95 | 6.4 | 9.7 | 0.00 | 0.00 | 0.00 | 55 | 1005.2 |
| 20260506134428 | 21 | 94 | 11.3 | 17.7 | 0.00 | 0.00 | 0.00 | 54 | 1005.3 |
| 20260506133445 | 21 | 13 | 9.7 | 16.1 | 0.00 | 0.00 | 0.00 | 52 | 1005.4 |
| 20260506132443 | 21 | 72 | 6.4 | 6.4 | 0.00 | 0.00 | 0.00 | 52 | 1005.2 |
| 20260506131443 | 21 | 93 | 11.3 | 17.7 | 0.00 | 0.00 | 0.00 | 54 | 1005.9 |
| 20260506130442 | 22 | 88 | 8.0 | 14.5 | 0.00 | 0.00 | 0.00 | 51 | 1005.8 |
| 20260506125439 | 22 | 54 | 8.0 | 11.3 | 0.00 | 0.00 | 0.00 | 51 | 1006.0 |
| 20260506124436 | 22 | 20 | 8.0 | 11.3 | 0.00 | 0.00 | 0.00 | 52 | 1006.2 |
| 20260506123433 | 21 | 338 | 9.7 | 12.9 | 0.00 | 0.00 | 0.00 | 56 | 1006.5 |
| 20260506122429 | 21 | 40 | 4.8 | 6.4 | 0.00 | 0.00 | 0.00 | 53 | 1006.4 |
| 20260506121449 | 21 | 255 | 0.0 | 1.6 | 0.00 | 0.00 | 0.00 | 58 | 1006.5 |
| 20260506120448 | 21 | 84 | 11.3 | 14.5 | 0.00 | 0.00 | 0.00 | 60 | 1006.7 |
| 20260506115427 | 20 | 28 | 4.8 | 11.3 | 0.00 | 0.00 | 0.00 | 61 | 1006.9 |
| 20260506114446 | 20 | 30 | 9.7 | 14.5 | 0.00 | 0.00 | 0.00 | 60 | 1007.0 |
| 20260506113445 | 19 | 7 | 6.4 | 6.4 | 0.00 | 0.00 | 0.00 | 64 | 1007.2 |
| 20260506112444 | 19 | 99 | 12.9 | 24.1 | 0.00 | 0.00 | 0.00 | 67 | 1007.3 |
| 20260506111441 | 18 | 81 | 9.7 | 16.1 | 0.00 | 0.00 | 0.00 | 67 | 1007.5 |
| 20260506110438 | 18 | 61 | 6.4 | 11.3 | 0.00 | 0.00 | 0.00 | 64 | 1007.7 |
| 20260506105434 | 18 | 93 | 8.0 | 11.3 | 0.00 | 0.00 | 0.00 | 69 | 1007.9 |
| 20260506104430 | 17 | 53 | 3.2 | 4.8 | 0.00 | 0.00 | 0.00 | 70 | 1008.1 |
| 20260506103428 | 17 | 84 | 4.8 | 6.4 | 0.00 | 0.00 | 0.00 | 71 | 1008.1 |
| 20260506102428 | 17 | 98 | 6.4 | 6.4 | 0.00 | 0.00 | 0.00 | 70 | 1008.1 |
| 20260506101428 | 17 | 101 | 4.8 | 4.8 | 0.00 | 0.00 | 0.00 | 71 | 1008.4 |
| 20260506100427 | 17 | 96 | 3.2 | 4.8 | 0.00 | 0.00 | 0.00 | 70 | 1008.5 |
| 20260506095428 | 17 | 71 | 1.6 | 3.2 | 0.00 | 0.00 | 0.00 | 69 | 1008.5 |
| 20260506094504 | 17 | 88 | 12.9 | 17.7 | 0.00 | 0.00 | 0.00 | 68 | 1008.6 |
| 20260506093501 | 17 | 74 | 6.4 | 11.3 | 0.00 | 0.00 | 0.00 | 67 | 1008.8 |
| 20260506092442 | 17 | 94 | 6.4 | 6.4 | 0.00 | 0.00 | 0.00 | 69 | 1008.7 |
| 20260506091515 | 16 | 84 | 3.2 | 4.8 | 0.00 | 0.00 | 0.00 | 69 | 1009.1 |
| 20260506090434 | 16 | 88 | 12.9 | 16.1 | 0.00 | 0.00 | 0.00 | 70 | 1008.9 |
| 20260506085431 | 16 | 80 | 4.8 | 9.7 | 0.00 | 0.00 | 0.00 | 70 | 1008.9 |
| 20260506084428 | 16 | 81 | 3.2 | 4.8 | 0.00 | 0.00 | 0.00 | 68 | 1009.3 |
| 20260506083427 | 16 | 109 | 4.8 | 4.8 | 0.00 | 0.00 | 0.00 | 69 | 1009.1 |
| 20260506082428 | 16 | 46 | 4.8 | 6.4 | 0.00 | 0.00 | 0.00 | 69 | 1009.2 |
| 20260506081427 | 16 | 323 | 3.2 | 4.8 | 0.00 | 0.00 | 0.00 | 67 | 1009.1 |
| 20260506080426 | 16 | 332 | 6.4 | 9.7 | 0.00 | 0.00 | 0.00 | 70 | 1008.9 |
| 20260506073439 | 15 | 108 | 4.8 | 4.8 | 0.00 | 0.00 | 0.00 | 69 | 1009.6 |
| 20260506072435 | 16 | 82 | 4.8 | 6.4 | 0.00 | 0.00 | 0.00 | 68 | 1009.6 |
| 20260506071431 | 15 | 45 | 3.2 | 3.2 | 0.00 | 0.00 | 0.00 | 69 | 1009.5 |
| 20260506070429 | 16 | 60 | 4.8 | 9.7 | 0.00 | 0.00 | 0.00 | 70 | 1009.5 |
| 20260506062427 | 15 | 141 | 3.2 | 4.8 | 0.00 | 0.00 | 0.00 | 72 | 1009.9 |
| 20260506061446 | 15 | 0.0 | 0.0 | 0.00 | 0.00 | 0.00 | 70 | 1009.8 |